Content
SEND FEEDBACK

Daily
Averages
Monthly
Summary
United States of America

MCFARLAND, KANSAS


Home > North America > United States > Kansas
Elevation: 1030 feet     Latitude: 39 03N     Longitude: 096 14W

WEATHER
 
SELECT A DAY
Number of Records: 199,959;   Date Range: 1/1/95 - 10/19/14
 
SHARE

PRINT THIS DATA

[ ← Previous Day ]
WEATHER ALMANAC - JANUARY 19, 2013
[ Next Day → ]
[ °C ]   °F
Weather ElementAverageHighLow
Temperature45 °F64.9 °F (2:52 pm)30.9 °F (10:52 pm)
Dewpoint27.1 °F32 °F (1:52 am)23 °F (2:52 pm)
Humidity54.7 %82 % (7:52 am)20 % (2:52 pm)
Barometer30.10 in30.29 in (10:52 pm)29.96 in (4:52 am)
Wind Speed5.2 mph12.7 mph (1:52 am)
Wind Gust19.6 mph (3:52 pm)
Weather ElementAverage
Visibility10 mi
Wind DirectionSSE (167.4 °)

Weather ElementTotal
Precipitation---
Heating Degree Days17.1 (Base 65)
Averaged from 23 records on January 19, 2013
WEATHER CONDITIONS BREAKOUT
WIND DIRECTION BREAKOUT
WEATHER BY HOUR - JANUARY 19, 2013
[ °C ]   °F
Local TimeTemperatureDewpointHumidityBarometerVisibilityWind DirectionWind SpeedGust SpeedPrecipitationEventsConditions
1:52 AM44.1 °F32.0 °F63 %29.99 in10.0 miSW (230°)12.7 mphClear
2:52 AM42.1 °F30.9 °F65 %29.99 in10.0 miSW (230°)11.5 mphClear
3:52 AM39.0 °F30.0 °F70 %29.97 in10.0 miCalmClear
4:52 AM39.0 °F30.9 °F73 %29.96 in10.0 miSW (230°)9.2 mphClear
5:52 AM35.1 °F28.9 °F78 %29.98 in10.0 miWSW (240°)8.1 mphClear
6:52 AM34.0 °F28.0 °F79 %30.00 in10.0 miCalmClear
7:52 AM33.1 °F28.0 °F82 %30.02 in10.0 miWSW (250°)5.8 mphClear
8:52 AM37.9 °F28.9 °F70 %30.04 in10.0 miSW (220°)5.8 mphClear
9:52 AM45.0 °F27.0 °F49 %30.08 in10.0 miWest (270°)6.9 mph16.1 mphClear
10:52 AM50.0 °F27.0 °F41 %30.10 in10.0 miWNW (290°)6.9 mphClear
11:52 AM55.0 °F26.1 °F33 %30.09 in10.0 miVariable5.8 mphClear
12:52 PM60.1 °F26.1 °F27 %30.06 in10.0 miNNW (340°)5.8 mphClear
1:52 PM63.0 °F28.0 °F27 %30.05 in10.0 miWNW (290°)8.1 mphClear
2:52 PM64.9 °F23.0 °F20 %30.05 in10.0 miNNW (330°)9.2 mph17.3 mphClear
3:52 PM64.0 °F23.0 °F21 %30.08 in10.0 miNNW (340°)10.4 mph19.6 mphClear
4:52 PM60.1 °F26.1 °F27 %30.12 in10.0 miNNW (330°)6.9 mphClear
5:52 PM51.1 °F25.0 °F36 %30.15 in10.0 miCalmClear
6:52 PM43.0 °F26.1 °F51 %30.18 in10.0 miCalmClear
7:52 PM39.0 °F26.1 °F60 %30.21 in10.0 miSW (220°)3.5 mphClear
8:52 PM36.0 °F26.1 °F67 %30.24 in10.0 miCalmClear
9:52 PM33.1 °F25.0 °F72 %30.25 in10.0 miCalmClear
10:52 PM30.9 °F24.1 °F76 %30.29 in10.0 miNE (40°)3.5 mphClear
11:52 PM36.0 °F27.0 °F70 %30.29 in10.0 miCalmClear
Hourly data recorded from KMHK, located miles away from McFarland, Kansas







STORIES FROM OUR PARTNERS